Time,TemperatureF,DewpointF,PressureIn,WindDirection,WindDirectionDegrees,WindSpeedMPH,WindSpeedGustMPH,Humidity,HourlyPrecipIn,Conditions,Clouds,dailyrainin,SoftwareType,DateUTC
2013-08-04 00:04:00,75.9,53.6,29.89,NW,307,0.0,0.0,46,0.00,,,0.00,Wunderground v.1.15,2013-08-04 06:04:00,
2013-08-04 00:10:00,75.9,53.6,29.89,NW,307,0.0,0.0,46,0.00,,,0.00,Wunderground v.1.15,2013-08-04 06:10:00,
2013-08-04 00:15:00,75.8,53.5,29.89,NW,307,0.0,0.0,46,0.00,,,0.00,Wunderground v.1.15,2013-08-04 06:15:00,
2013-08-04 00:20:00,75.8,53.5,29.89,NW,307,0.0,0.0,46,0.00,,,0.00,Wunderground v.1.15,2013-08-04 06:20:00,
2013-08-04 00:25:00,76.0,53.7,29.89,NW,307,0.0,0.0,46,0.00,,,0.00,Wunderground v.1.15,2013-08-04 06:25:00,
2013-08-04 00:34:00,76.0,53.7,29.89,NW,307,0.0,0.0,46,0.00,,,0.00,Wunderground v.1.15,2013-08-04 06:34:00,
2013-08-04 00:39:00,76.2,53.3,29.89,NW,307,0.0,0.0,45,0.00,,,0.00,Wunderground v.1.15,2013-08-04 06:39:00,
2013-08-04 00:44:00,76.3,52.8,29.89,NW,307,0.0,0.0,44,0.00,,,0.00,Wunderground v.1.15,2013-08-04 06:44:00,
2013-08-04 00:50:00,76.5,53.0,29.89,NW,307,0.0,0.0,44,0.00,,,0.00,Wunderground v.1.15,2013-08-04 06:50:00,
2013-08-04 01:00:00,76.5,53.0,29.88,NW,307,0.0,0.0,44,0.00,,,0.00,Wunderground v.1.15,2013-08-04 07:00:00,
2013-08-04 01:05:00,76.3,52.8,29.89,NW,307,0.0,0.0,44,0.00,,,0.00,Wunderground v.1.15,2013-08-04 07:05:00,
2013-08-04 01:10:00,76.1,52.6,29.89,NW,307,0.0,0.0,44,0.00,,,0.00,Wunderground v.1.15,2013-08-04 07:10:00,
2013-08-04 01:15:00,75.8,52.9,29.89,NW,307,0.0,0.0,45,0.00,,,0.00,Wunderground v.1.15,2013-08-04 07:15:00,
2013-08-04 01:24:00,75.4,53.2,29.88,NW,307,0.0,0.0,46,0.00,,,0.00,Wunderground v.1.15,2013-08-04 07:24:00,
2013-08-04 01:30:00,75.2,53.6,29.88,NW,307,0.0,0.0,47,0.00,,,0.00,Wunderground v.1.15,2013-08-04 07:30:00,
2013-08-04 01:35:00,74.9,53.3,29.88,NW,307,0.0,0.0,47,0.00,,,0.00,Wunderground v.1.15,2013-08-04 07:35:00,
2013-08-04 01:40:00,74.8,53.2,29.88,NW,307,0.0,0.0,47,0.00,,,0.00,Wunderground v.1.15,2013-08-04 07:40:00,
2013-08-04 01:45:00,74.6,53.0,29.89,NW,307,0.0,0.0,47,0.00,,,0.00,Wunderground v.1.15,2013-08-04 07:45:00,
2013-08-04 01:50:00,74.3,53.3,29.89,NW,307,0.0,0.0,48,0.00,,,0.00,Wunderground v.1.15,2013-08-04 07:50:00,
2013-08-04 01:55:00,74.1,53.7,29.89,NW,307,0.0,0.0,49,0.00,,,0.00,Wunderground v.1.15,2013-08-04 07:55:00,
2013-08-04 02:00:00,74.0,53.1,29.90,NW,307,0.0,0.0,48,0.00,,,0.00,Wunderground v.1.15,2013-08-04 08:00:00,
2013-08-04 02:09:00,73.8,52.3,29.90,NW,307,0.0,0.0,47,0.00,,,0.00,Wunderground v.1.15,2013-08-04 08:09:00,
2013-08-04 02:14:00,74.1,52.6,29.89,NW,307,0.0,0.0,47,0.00,,,0.00,Wunderground v.1.15,2013-08-04 08:14:00,
2013-08-04 02:19:00,74.8,53.8,29.89,NW,307,0.0,0.0,48,0.00,,,0.00,Wunderground v.1.15,2013-08-04 08:19:00,
2013-08-04 02:25:00,75.3,53.7,29.89,NW,307,0.0,0.0,47,0.00,,,0.00,Wunderground v.1.15,2013-08-04 08:25:00,
2013-08-04 02:30:00,75.5,53.9,29.89,NW,307,0.0,0.0,47,0.00,,,0.00,Wunderground v.1.15,2013-08-04 08:30:00,
2013-08-04 02:35:00,75.4,54.3,29.89,NW,307,0.0,0.0,48,0.00,,,0.00,Wunderground v.1.15,2013-08-04 08:35:00,
2013-08-04 02:40:00,75.4,54.3,29.89,NW,307,0.0,0.0,48,0.00,,,0.00,Wunderground v.1.15,2013-08-04 08:40:00,
2013-08-04 02:45:00,75.3,54.3,29.89,NW,307,0.0,0.0,48,0.00,,,0.00,Wunderground v.1.15,2013-08-04 08:45:00,
2013-08-04 02:50:00,75.1,54.6,29.89,NW,307,0.0,0.0,49,0.00,,,0.00,Wunderground v.1.15,2013-08-04 08:50:00,
2013-08-04 02:54:00,74.9,55.0,29.89,NNW,331,0.0,0.0,50,0.00,,,0.00,Wunderground v.1.15,2013-08-04 08:54:00,
2013-08-04 02:59:00,74.8,54.9,29.89,NNW,334,0.0,0.0,50,0.00,,,0.00,Wunderground v.1.15,2013-08-04 08:59:00,
2013-08-04 03:04:00,74.7,55.4,29.89,NNW,334,0.0,0.0,51,0.00,,,0.00,Wunderground v.1.15,2013-08-04 09:04:00,
2013-08-04 03:09:00,74.5,55.2,29.89,NNW,334,0.0,0.0,51,0.00,,,0.00,Wunderground v.1.15,2013-08-04 09:09:00,
2013-08-04 03:14:00,74.3,55.0,29.89,NNW,334,0.0,0.0,51,0.00,,,0.00,Wunderground v.1.15,2013-08-04 09:14:00,
2013-08-04 03:19:00,74.1,55.3,29.89,NNW,334,0.0,0.0,52,0.00,,,0.00,Wunderground v.1.15,2013-08-04 09:19:00,
2013-08-04 03:25:00,73.8,55.1,29.89,NNW,334,0.0,0.0,52,0.00,,,0.00,Wunderground v.1.15,2013-08-04 09:25:00,
2013-08-04 03:30:00,73.8,54.5,29.89,NE,53,0.0,1.0,51,0.00,,,0.00,Wunderground v.1.15,2013-08-04 09:30:00,
2013-08-04 03:35:00,74.0,54.2,29.89,NE,53,0.0,1.0,50,0.00,,,0.00,Wunderground v.1.15,2013-08-04 09:35:00,
2013-08-04 03:40:00,74.1,54.3,29.89,NE,53,0.0,0.0,50,0.00,,,0.00,Wunderground v.1.15,2013-08-04 09:40:00,
2013-08-04 03:50:00,73.9,54.6,29.89,NE,53,0.0,0.0,51,0.00,,,0.00,Wunderground v.1.15,2013-08-04 09:50:00,
2013-08-04 03:54:00,73.8,55.1,29.89,NE,53,0.0,0.0,52,0.00,,,0.00,Wunderground v.1.15,2013-08-04 09:54:00,
2013-08-04 03:59:00,73.6,54.9,29.89,NE,53,0.0,0.0,52,0.00,,,0.00,Wunderground v.1.15,2013-08-04 09:59:00,
2013-08-04 04:05:00,73.3,55.1,29.89,NE,53,0.0,0.0,53,0.00,,,0.00,Wunderground v.1.15,2013-08-04 10:05:00,
2013-08-04 04:09:00,73.1,55.5,29.89,NE,53,0.0,0.0,54,0.00,,,0.00,Wunderground v.1.15,2013-08-04 10:09:00,
2013-08-04 04:15:00,72.9,55.3,29.89,NE,53,0.0,0.0,54,0.00,,,0.00,Wunderground v.1.15,2013-08-04 10:15:00,
2013-08-04 04:20:00,72.7,55.6,29.89,NE,53,0.0,0.0,55,0.00,,,0.00,Wunderground v.1.15,2013-08-04 10:20:00,
2013-08-04 04:30:00,72.2,55.6,29.89,NE,53,0.0,1.0,56,0.00,,,0.00,Wunderground v.1.15,2013-08-04 10:30:00,
2013-08-04 04:35:00,71.9,55.8,29.89,NE,53,0.0,1.0,57,0.00,,,0.00,Wunderground v.1.15,2013-08-04 10:35:00,
2013-08-04 04:40:00,71.7,55.7,29.89,NE,53,0.0,0.0,57,0.00,,,0.00,Wunderground v.1.15,2013-08-04 10:40:00,
2013-08-04 04:45:00,71.6,56.0,29.89,NE,53,0.0,0.0,58,0.00,,,0.00,Wunderground v.1.15,2013-08-04 10:45:00,
2013-08-04 04:49:00,71.4,55.9,29.89,NE,53,0.0,0.0,58,0.00,,,0.00,Wunderground v.1.15,2013-08-04 10:49:00,
2013-08-04 04:54:00,71.3,55.8,29.89,NE,53,0.0,0.0,58,0.00,,,0.00,Wunderground v.1.15,2013-08-04 10:54:00,
2013-08-04 04:59:00,71.1,55.6,29.89,NE,53,0.0,0.0,58,0.00,,,0.00,Wunderground v.1.15,2013-08-04 10:59:00,
2013-08-04 05:04:00,70.9,55.9,29.89,NE,53,0.0,0.0,59,0.00,,,0.00,Wunderground v.1.15,2013-08-04 11:04:00,
2013-08-04 05:09:00,70.7,55.7,29.89,NE,53,0.0,0.0,59,0.00,,,0.00,Wunderground v.1.15,2013-08-04 11:09:00,
2013-08-04 05:15:00,70.5,55.5,29.89,NE,53,0.0,0.0,59,0.00,,,0.00,Wunderground v.1.15,2013-08-04 11:15:00,
2013-08-04 05:20:00,70.3,55.3,29.89,NE,53,0.0,0.0,59,0.00,,,0.00,Wunderground v.1.15,2013-08-04 11:20:00,
2013-08-04 05:24:00,70.1,55.6,29.89,NE,53,0.0,0.0,60,0.00,,,0.00,Wunderground v.1.15,2013-08-04 11:24:00,
2013-08-04 05:30:00,69.9,55.8,29.89,NE,53,0.0,0.0,61,0.00,,,0.00,Wunderground v.1.15,2013-08-04 11:30:00,
2013-08-04 05:35:00,69.8,55.7,29.89,NE,53,0.0,0.0,61,0.00,,,0.00,Wunderground v.1.15,2013-08-04 11:35:00,
2013-08-04 05:45:00,69.7,55.6,29.89,NE,53,0.0,0.0,61,0.00,,,0.00,Wunderground v.1.15,2013-08-04 11:45:00,
2013-08-04 05:50:00,69.8,55.7,29.90,NE,53,0.0,0.0,61,0.00,,,0.00,Wunderground v.1.15,2013-08-04 11:50:00,
2013-08-04 05:54:00,69.7,55.6,29.90,NE,53,0.0,0.0,61,0.00,,,0.00,Wunderground v.1.15,2013-08-04 11:54:00,
2013-08-04 05:59:00,69.7,55.6,29.90,NE,53,0.0,0.0,61,0.00,,,0.00,Wunderground v.1.15,2013-08-04 11:59:00,
2013-08-04 06:04:00,69.7,55.6,29.90,NE,53,0.0,0.0,61,0.00,,,0.00,Wunderground v.1.15,2013-08-04 12:04:00,
2013-08-04 06:09:00,69.6,56.0,29.90,NE,53,0.0,0.0,62,0.00,,,0.00,Wunderground v.1.15,2013-08-04 12:09:00,
2013-08-04 06:15:00,69.5,55.9,29.90,NE,53,0.0,0.0,62,0.00,,,0.00,Wunderground v.1.15,2013-08-04 12:15:00,
2013-08-04 06:20:00,69.3,55.7,29.91,NE,53,0.0,0.0,62,0.00,,,0.00,Wunderground v.1.15,2013-08-04 12:20:00,
2013-08-04 06:25:00,69.3,56.2,29.91,NE,53,0.0,0.0,63,0.00,,,0.00,Wunderground v.1.15,2013-08-04 12:25:00,
2013-08-04 06:30:00,69.2,56.1,29.91,NE,53,0.0,0.0,63,0.00,,,0.00,Wunderground v.1.15,2013-08-04 12:30:00,
2013-08-04 06:35:00,69.1,56.4,29.91,NE,53,0.0,0.0,64,0.00,,,0.00,Wunderground v.1.15,2013-08-04 12:35:00,
2013-08-04 06:39:00,69.0,55.9,29.91,NE,53,0.0,0.0,63,0.00,,,0.00,Wunderground v.1.15,2013-08-04 12:39:00,
2013-08-04 06:44:00,68.8,56.1,29.91,NE,53,0.0,0.0,64,0.00,,,0.00,Wunderground v.1.15,2013-08-04 12:44:00,
2013-08-04 06:50:00,69.0,56.3,29.91,NE,53,0.0,0.0,64,0.00,,,0.00,Wunderground v.1.15,2013-08-04 12:50:00,
2013-08-04 06:54:00,69.3,57.0,29.91,NE,53,0.0,0.0,65,0.00,,,0.00,Wunderground v.1.15,2013-08-04 12:54:00,
2013-08-04 06:59:00,69.5,56.8,29.91,NE,53,0.0,0.0,64,0.00,,,0.00,Wunderground v.1.15,2013-08-04 12:59:00,
2013-08-04 07:04:00,69.6,56.9,29.92,NE,53,0.0,0.0,64,0.00,,,0.00,Wunderground v.1.15,2013-08-04 13:04:00,
2013-08-04 07:09:00,69.6,56.9,29.92,NE,53,0.0,0.0,64,0.00,,,0.00,Wunderground v.1.15,2013-08-04 13:09:00,
2013-08-04 07:14:00,69.6,56.9,29.92,NE,53,0.0,0.0,64,0.00,,,0.00,Wunderground v.1.15,2013-08-04 13:14:00,
2013-08-04 07:20:00,69.7,57.4,29.92,NE,53,0.0,0.0,65,0.00,,,0.00,Wunderground v.1.15,2013-08-04 13:20:00,
2013-08-04 07:24:00,69.8,57.1,29.92,NE,53,0.0,0.0,64,0.00,,,0.00,Wunderground v.1.15,2013-08-04 13:24:00,
2013-08-04 07:30:00,70.0,57.3,29.92,NE,53,0.0,0.0,64,0.00,,,0.00,Wunderground v.1.15,2013-08-04 13:30:00,
2013-08-04 07:35:00,70.3,57.1,29.92,NE,53,0.0,0.0,63,0.00,,,0.00,Wunderground v.1.15,2013-08-04 13:35:00,
2013-08-04 07:40:00,71.0,57.3,29.92,NE,53,0.0,0.0,62,0.00,,,0.00,Wunderground v.1.15,2013-08-04 13:40:00,
2013-08-04 07:45:00,71.7,57.5,29.92,NE,53,0.0,0.0,61,0.00,,,0.00,Wunderground v.1.15,2013-08-04 13:45:00,
2013-08-04 07:50:00,72.3,57.6,29.92,NE,53,0.0,0.0,60,0.00,,,0.00,Wunderground v.1.15,2013-08-04 13:50:00,
2013-08-04 07:55:00,72.9,57.7,29.92,NE,53,0.0,0.0,59,0.00,,,0.00,Wunderground v.1.15,2013-08-04 13:55:00,
2013-08-04 08:05:00,74.0,57.8,29.92,NE,53,0.0,0.0,57,0.00,,,0.00,Wunderground v.1.15,2013-08-04 14:05:00,
2013-08-04 08:15:00,75.1,57.8,29.93,NE,53,0.0,0.0,55,0.00,,,0.00,Wunderground v.1.15,2013-08-04 14:15:00,
2013-08-04 08:20:00,75.7,58.4,29.93,NE,53,0.0,0.0,55,0.00,,,0.00,Wunderground v.1.15,2013-08-04 14:20:00,
2013-08-04 08:25:00,76.2,58.3,29.93,NE,53,0.0,0.0,54,0.00,,,0.00,Wunderground v.1.15,2013-08-04 14:25:00,
2013-08-04 08:30:00,76.6,58.7,29.93,NE,53,0.0,0.0,54,0.00,,,0.00,Wunderground v.1.15,2013-08-04 14:30:00,
2013-08-04 08:35:00,77.2,58.2,29.93,NE,53,0.0,0.0,52,0.00,,,0.00,Wunderground v.1.15,2013-08-04 14:35:00,
2013-08-04 08:39:00,77.8,58.2,29.93,NE,53,0.0,0.0,51,0.00,,,0.00,Wunderground v.1.15,2013-08-04 14:39:00,
2013-08-04 08:44:00,78.4,58.2,29.93,NE,49,0.0,0.0,50,0.00,,,0.00,Wunderground v.1.15,2013-08-04 14:44:00,
2013-08-04 08:50:00,78.9,57.0,29.93,NE,49,0.0,0.0,47,0.00,,,0.00,Wunderground v.1.15,2013-08-04 14:50:00,
2013-08-04 08:54:00,79.6,57.0,29.93,NE,49,0.0,0.0,46,0.00,,,0.00,Wunderground v.1.15,2013-08-04 14:54:00,
2013-08-04 09:00:00,80.1,57.5,29.93,NE,49,0.0,0.0,46,0.00,,,0.00,Wunderground v.1.15,2013-08-04 15:00:00,
2013-08-04 09:05:00,80.5,56.6,29.92,NE,49,0.0,0.0,44,0.00,,,0.00,Wunderground v.1.15,2013-08-04 15:05:00,
2013-08-04 09:10:00,80.9,56.9,29.92,NE,49,0.0,0.0,44,0.00,,,0.00,Wunderground v.1.15,2013-08-04 15:10:00,
2013-08-04 09:15:00,81.2,55.9,29.92,NE,49,0.0,0.0,42,0.00,,,0.00,Wunderground v.1.15,2013-08-04 15:15:00,
2013-08-04 09:20:00,81.4,56.8,29.92,NE,49,0.0,0.0,43,0.00,,,0.00,Wunderground v.1.15,2013-08-04 15:20:00,
2013-08-04 09:25:00,81.7,57.0,29.92,NE,49,0.0,0.0,43,0.00,,,0.00,Wunderground v.1.15,2013-08-04 15:25:00,
2013-08-04 09:30:00,81.8,57.1,29.92,NE,49,0.0,0.0,43,0.00,,,0.00,Wunderground v.1.15,2013-08-04 15:30:00,
2013-08-04 09:34:00,81.6,56.3,29.92,NE,49,0.0,0.0,42,0.00,,,0.00,Wunderground v.1.15,2013-08-04 15:34:00,
2013-08-04 09:39:00,81.4,56.8,29.92,NE,49,0.0,0.0,43,0.00,,,0.00,Wunderground v.1.15,2013-08-04 15:39:00,
2013-08-04 09:45:00,81.6,56.9,29.92,NE,49,0.0,0.0,43,0.00,,,0.00,Wunderground v.1.15,2013-08-04 15:45:00,
2013-08-04 09:50:00,81.8,56.5,29.92,NE,49,0.0,0.0,42,0.00,,,0.00,Wunderground v.1.15,2013-08-04 15:50:00,
2013-08-04 09:55:00,82.0,56.6,29.92,NE,49,0.0,0.0,42,0.00,,,0.00,Wunderground v.1.15,2013-08-04 15:55:00,
2013-08-04 10:00:00,82.2,56.8,29.92,NE,49,0.0,0.0,42,0.00,,,0.00,Wunderground v.1.15,2013-08-04 16:00:00,
2013-08-04 10:05:00,82.3,57.6,29.92,NE,49,0.0,0.0,43,0.00,,,0.00,Wunderground v.1.15,2013-08-04 16:05:00,
2013-08-04 10:10:00,82.5,57.1,29.92,NE,49,0.0,0.0,42,0.00,,,0.00,Wunderground v.1.15,2013-08-04 16:10:00,
2013-08-04 10:15:00,83.0,57.5,29.92,NE,49,0.0,0.0,42,0.00,,,0.00,Wunderground v.1.15,2013-08-04 16:15:00,
2013-08-04 10:20:00,83.4,57.2,29.92,NE,49,0.0,0.0,41,0.00,,,0.00,Wunderground v.1.15,2013-08-04 16:20:00,
2013-08-04 10:25:00,83.6,56.7,29.92,NE,49,0.0,0.0,40,0.00,,,0.00,Wunderground v.1.15,2013-08-04 16:25:00,
2013-08-04 10:30:00,83.2,55.7,29.92,NE,39,0.0,1.0,39,0.00,,,0.00,Wunderground v.1.15,2013-08-04 16:30:00,
2013-08-04 10:35:00,83.1,57.0,29.91,NE,39,0.0,1.0,41,0.00,,,0.00,Wunderground v.1.15,2013-08-04 16:35:00,
2013-08-04 10:40:00,83.2,56.4,29.91,NE,39,0.0,0.0,40,0.00,,,0.00,Wunderground v.1.15,2013-08-04 16:40:00,
2013-08-04 10:45:00,83.6,56.7,29.91,NE,39,0.0,0.0,40,0.00,,,0.00,Wunderground v.1.15,2013-08-04 16:45:00,
2013-08-04 10:50:00,83.9,57.0,29.91,NE,39,0.0,0.0,40,0.00,,,0.00,Wunderground v.1.15,2013-08-04 16:50:00,
2013-08-04 10:55:00,84.1,56.5,29.91,NE,39,0.0,0.0,39,0.00,,,0.00,Wunderground v.1.15,2013-08-04 16:55:00,
2013-08-04 10:59:00,84.3,56.6,29.91,NE,39,0.0,0.0,39,0.00,,,0.00,Wunderground v.1.15,2013-08-04 16:59:00,
2013-08-04 11:05:00,84.8,57.1,29.90,NE,39,0.0,0.0,39,0.00,,,0.00,Wunderground v.1.15,2013-08-04 17:05:00,
2013-08-04 11:10:00,85.3,56.1,29.90,NE,39,0.0,0.0,37,0.00,,,0.00,Wunderground v.1.15,2013-08-04 17:10:00,
2013-08-04 11:15:00,85.5,56.3,29.90,NE,39,0.0,0.0,37,0.00,,,0.00,Wunderground v.1.15,2013-08-04 17:15:00,
2013-08-04 11:20:00,85.7,56.4,29.90,NE,39,0.0,0.0,37,0.00,,,0.00,Wunderground v.1.15,2013-08-04 17:20:00,
2013-08-04 11:25:00,85.9,56.6,29.89,NE,40,0.0,0.0,37,0.00,,,0.00,Wunderground v.1.15,2013-08-04 17:25:00,
2013-08-04 11:30:00,86.1,56.8,29.89,NE,40,0.0,4.0,37,0.00,,,0.00,Wunderground v.1.15,2013-08-04 17:30:00,
2013-08-04 11:35:00,86.5,56.4,29.89,NE,39,0.0,4.0,36,0.00,,,0.00,Wunderground v.1.15,2013-08-04 17:35:00,
2013-08-04 11:40:00,86.8,55.9,29.89,NE,40,0.0,1.0,35,0.00,,,0.00,Wunderground v.1.15,2013-08-04 17:40:00,
2013-08-04 11:45:00,86.8,55.9,29.89,NE,40,0.0,1.0,35,0.00,,,0.00,Wunderground v.1.15,2013-08-04 17:45:00,
2013-08-04 11:49:00,87.1,55.3,29.88,NE,40,0.0,1.0,34,0.00,,,0.00,Wunderground v.1.15,2013-08-04 17:49:00,
2013-08-04 11:55:00,87.6,55.8,29.88,NE,40,0.0,1.0,34,0.00,,,0.00,Wunderground v.1.15,2013-08-04 17:55:00,
2013-08-04 12:00:00,88.2,55.5,29.88,NE,39,0.0,0.0,33,0.00,,,0.00,Wunderground v.1.15,2013-08-04 18:00:00,
2013-08-04 12:05:00,88.6,55.8,29.88,NE,39,0.0,0.0,33,0.00,,,0.00,Wunderground v.1.15,2013-08-04 18:05:00,
2013-08-04 12:10:00,89.0,55.3,29.88,NE,39,0.0,0.0,32,0.00,,,0.00,Wunderground v.1.15,2013-08-04 18:10:00,
2013-08-04 12:15:00,89.2,55.5,29.88,NE,35,0.0,0.0,32,0.00,,,0.00,Wunderground v.1.15,2013-08-04 18:15:00,
2013-08-04 12:20:00,89.1,55.4,29.87,NE,35,0.0,0.0,32,0.00,,,0.00,Wunderground v.1.15,2013-08-04 18:20:00,
2013-08-04 12:25:00,89.1,56.2,29.87,NE,35,0.0,0.0,33,0.00,,,0.00,Wunderground v.1.15,2013-08-04 18:25:00,
2013-08-04 12:30:00,89.5,55.7,29.87,NE,35,0.0,1.0,32,0.00,,,0.00,Wunderground v.1.15,2013-08-04 18:30:00,
2013-08-04 12:35:00,90.1,55.4,29.87,North,350,0.0,1.0,31,0.00,,,0.00,Wunderground v.1.15,2013-08-04 18:35:00,
2013-08-04 12:44:00,92.0,55.2,29.86,NNW,340,0.0,0.0,29,0.00,,,0.00,Wunderground v.1.15,2013-08-04 18:44:00,
2013-08-04 12:50:00,92.3,54.5,29.86,NNW,340,0.0,0.0,28,0.00,,,0.00,Wunderground v.1.15,2013-08-04 18:50:00,
2013-08-04 12:55:00,92.7,55.8,29.86,NNW,340,0.0,0.0,29,0.00,,,0.00,Wunderground v.1.15,2013-08-04 18:55:00,
2013-08-04 12:59:00,93.1,56.1,29.85,WNW,301,0.0,1.0,29,0.00,,,0.00,Wunderground v.1.15,2013-08-04 18:59:00,
2013-08-04 13:05:00,93.1,55.2,29.85,WNW,301,1.0,1.0,28,0.00,,,0.00,Wunderground v.1.15,2013-08-04 19:05:00,
2013-08-04 13:10:00,93.4,55.4,29.85,West,270,0.0,0.0,28,0.00,,,0.00,Wunderground v.1.15,2013-08-04 19:10:00,
2013-08-04 13:15:00,93.8,54.8,29.84,West,270,0.0,0.0,27,0.00,,,0.00,Wunderground v.1.15,2013-08-04 19:15:00,
2013-08-04 13:20:00,93.7,56.6,29.84,West,270,0.0,0.0,29,0.00,,,0.00,Wunderground v.1.15,2013-08-04 19:20:00,
2013-08-04 13:25:00,94.0,55.9,29.84,West,270,0.0,0.0,28,0.00,,,0.00,Wunderground v.1.15,2013-08-04 19:25:00,
2013-08-04 13:30:00,94.6,55.4,29.83,West,270,0.0,1.0,27,0.00,,,0.00,Wunderground v.1.15,2013-08-04 19:30:00,
2013-08-04 13:35:00,94.6,55.4,29.83,West,270,0.0,1.0,27,0.00,,,0.00,Wunderground v.1.15,2013-08-04 19:35:00,
2013-08-04 13:40:00,94.9,55.7,29.83,West,267,0.0,1.0,27,0.00,,,0.00,Wunderground v.1.15,2013-08-04 19:40:00,
2013-08-04 13:44:00,95.6,54.2,29.83,West,267,0.0,1.0,25,0.00,,,0.00,Wunderground v.1.15,2013-08-04 19:44:00,
2013-08-04 13:49:00,96.3,54.8,29.82,West,267,0.0,0.0,25,0.00,,,0.00,Wunderground v.1.15,2013-08-04 19:49:00,
2013-08-04 13:55:00,96.5,52.6,29.82,West,267,0.0,0.0,23,0.00,,,0.00,Wunderground v.1.15,2013-08-04 19:55:00,
2013-08-04 14:00:00,96.6,53.9,29.82,West,267,0.0,0.0,24,0.00,,,0.00,Wunderground v.1.15,2013-08-04 20:00:00,
2013-08-04 14:05:00,96.9,54.1,29.82,West,267,0.0,0.0,24,0.00,,,0.00,Wunderground v.1.15,2013-08-04 20:05:00,
2013-08-04 14:10:00,97.1,51.9,29.81,West,267,0.0,1.0,22,0.00,,,0.00,Wunderground v.1.15,2013-08-04 20:10:00,
2013-08-04 14:15:00,97.4,52.2,29.81,West,267,0.0,1.0,22,0.00,,,0.00,Wunderground v.1.15,2013-08-04 20:15:00,
2013-08-04 14:20:00,97.7,52.4,29.81,West,267,0.0,0.0,22,0.00,,,0.00,Wunderground v.1.15,2013-08-04 20:20:00,
2013-08-04 14:25:00,97.8,51.3,29.81,WSW,258,0.0,0.0,21,0.00,,,0.00,Wunderground v.1.15,2013-08-04 20:25:00,
2013-08-04 14:29:00,98.2,47.4,29.81,WSW,257,1.0,1.0,18,0.00,,,0.00,Wunderground v.1.15,2013-08-04 20:29:00,
2013-08-04 14:35:00,97.8,48.6,29.81,WSW,257,0.0,1.0,19,0.00,,,0.00,Wunderground v.1.15,2013-08-04 20:35:00,
2013-08-04 14:40:00,97.7,48.5,29.81,WSW,257,0.0,0.0,19,0.00,,,0.00,Wunderground v.1.15,2013-08-04 20:40:00,
2013-08-04 14:45:00,97.7,51.2,29.81,WSW,257,0.0,0.0,21,0.00,,,0.00,Wunderground v.1.15,2013-08-04 20:45:00,
2013-08-04 14:50:00,97.6,51.1,29.80,WSW,256,0.0,0.0,21,0.00,,,0.00,Wunderground v.1.15,2013-08-04 20:50:00,
2013-08-04 14:55:00,97.4,50.9,29.80,WSW,256,0.0,0.0,21,0.00,,,0.00,Wunderground v.1.15,2013-08-04 20:55:00,
2013-08-04 15:00:00,97.6,52.3,29.80,WSW,256,0.0,2.0,22,0.00,,,0.00,Wunderground v.1.15,2013-08-04 21:00:00,
2013-08-04 15:05:00,97.0,50.6,29.80,WSW,256,0.0,2.0,21,0.00,,,0.00,Wunderground v.1.15,2013-08-04 21:05:00,
2013-08-04 15:10:00,96.7,51.6,29.80,WSW,256,0.0,0.0,22,0.00,,,0.00,Wunderground v.1.15,2013-08-04 21:10:00,
2013-08-04 15:15:00,96.2,52.4,29.80,WSW,256,0.0,0.0,23,0.00,,,0.00,Wunderground v.1.15,2013-08-04 21:15:00,
2013-08-04 15:20:00,96.3,52.5,29.80,WSW,256,0.0,0.0,23,0.00,,,0.00,Wunderground v.1.15,2013-08-04 21:20:00,
2013-08-04 15:25:00,96.5,52.6,29.79,WSW,255,0.0,0.0,23,0.00,,,0.00,Wunderground v.1.15,2013-08-04 21:25:00,
2013-08-04 15:30:00,96.1,51.1,29.79,WSW,256,0.0,5.0,22,0.00,,,0.00,Wunderground v.1.15,2013-08-04 21:30:00,
2013-08-04 15:34:00,95.7,52.0,29.79,WSW,256,0.0,5.0,23,0.00,,,0.00,Wunderground v.1.15,2013-08-04 21:34:00,
2013-08-04 15:40:00,95.3,50.4,29.79,WSW,256,0.0,0.0,22,0.00,,,0.00,Wunderground v.1.15,2013-08-04 21:40:00,
2013-08-04 15:45:00,94.5,51.0,29.79,WSW,256,0.0,0.0,23,0.00,,,0.00,Wunderground v.1.15,2013-08-04 21:45:00,
2013-08-04 15:50:00,93.6,49.0,29.79,WSW,256,0.0,0.0,22,0.00,,,0.00,Wunderground v.1.15,2013-08-04 21:50:00,
2013-08-04 15:55:00,92.8,48.4,29.78,WSW,256,0.0,0.0,22,0.00,,,0.00,Wunderground v.1.15,2013-08-04 21:55:00,
2013-08-04 16:00:00,92.2,47.9,29.78,WSW,256,0.0,0.0,22,0.00,,,0.00,Wunderground v.1.15,2013-08-04 22:00:00,
2013-08-04 16:05:00,91.9,47.6,29.78,WSW,256,0.0,0.0,22,0.00,,,0.00,Wunderground v.1.15,2013-08-04 22:05:00,
2013-08-04 16:10:00,91.8,48.7,29.78,WSW,256,0.0,0.0,23,0.00,,,0.00,Wunderground v.1.15,2013-08-04 22:10:00,
2013-08-04 16:20:00,91.6,48.6,29.78,WSW,256,0.0,0.0,23,0.00,,,0.00,Wunderground v.1.15,2013-08-04 22:20:00,
2013-08-04 16:30:00,91.4,47.2,29.78,WSW,256,0.0,3.0,22,0.00,,,0.00,Wunderground v.1.15,2013-08-04 22:30:00,
2013-08-04 16:35:00,91.3,47.1,29.78,WSW,256,0.0,3.0,22,0.00,,,0.00,Wunderground v.1.15,2013-08-04 22:35:00,
2013-08-04 16:40:00,91.1,48.1,29.78,WSW,256,0.0,0.0,23,0.00,,,0.00,Wunderground v.1.15,2013-08-04 22:40:00,
2013-08-04 16:45:00,91.0,49.2,29.78,WSW,256,0.0,0.0,24,0.00,,,0.00,Wunderground v.1.15,2013-08-04 22:45:00,
2013-08-04 16:50:00,91.1,49.3,29.77,WSW,256,0.0,0.0,24,0.00,,,0.00,Wunderground v.1.15,2013-08-04 22:50:00,
2013-08-04 16:55:00,91.1,49.3,29.77,WSW,256,0.0,0.0,24,0.00,,,0.00,Wunderground v.1.15,2013-08-04 22:55:00,
2013-08-04 17:00:00,91.0,49.2,29.77,WSW,256,0.0,0.0,24,0.00,,,0.00,Wunderground v.1.15,2013-08-04 23:00:00,
2013-08-04 17:05:00,91.0,50.3,29.77,WSW,256,0.0,0.0,25,0.00,,,0.00,Wunderground v.1.15,2013-08-04 23:05:00,
2013-08-04 17:09:00,91.1,49.3,29.77,WSW,256,0.0,0.0,24,0.00,,,0.00,Wunderground v.1.15,2013-08-04 23:09:00,
2013-08-04 17:15:00,91.0,49.2,29.77,WSW,256,0.0,0.0,24,0.00,,,0.00,Wunderground v.1.15,2013-08-04 23:15:00,
2013-08-04 17:20:00,90.9,49.1,29.77,WSW,256,0.0,0.0,24,0.00,,,0.00,Wunderground v.1.15,2013-08-04 23:20:00,
2013-08-04 17:25:00,90.8,49.0,29.76,WSW,256,0.0,0.0,24,0.00,,,0.00,Wunderground v.1.15,2013-08-04 23:25:00,
2013-08-04 17:30:00,90.7,48.9,29.77,WSW,256,0.0,0.0,24,0.00,,,0.00,Wunderground v.1.15,2013-08-04 23:30:00,
2013-08-04 17:35:00,90.5,49.9,29.77,WSW,256,0.0,0.0,25,0.00,,,0.00,Wunderground v.1.15,2013-08-04 23:35:00,
2013-08-04 17:40:00,90.2,48.5,29.76,WSW,256,0.0,0.0,24,0.00,,,0.00,Wunderground v.1.15,2013-08-04 23:40:00,
2013-08-04 17:45:00,90.0,48.4,29.76,WSW,256,0.0,0.0,24,0.00,,,0.00,Wunderground v.1.15,2013-08-04 23:45:00,
2013-08-04 17:50:00,89.7,48.1,29.76,WSW,256,0.0,0.0,24,0.00,,,0.00,Wunderground v.1.15,2013-08-04 23:50:00,
2013-08-04 17:55:00,89.5,47.9,29.76,WSW,256,0.0,0.0,24,0.00,,,0.00,Wunderground v.1.15,2013-08-04 23:55:00,
2013-08-04 18:00:00,89.3,47.8,29.76,WSW,256,0.0,0.0,24,0.00,,,0.00,Wunderground v.1.15,2013-08-05 00:00:00,
2013-08-04 18:05:00,89.1,48.7,29.76,WSW,256,0.0,0.0,25,0.00,,,0.00,Wunderground v.1.15,2013-08-05 00:05:00,
2013-08-04 18:10:00,89.0,48.6,29.76,WSW,256,0.0,0.0,25,0.00,,,0.00,Wunderground v.1.15,2013-08-05 00:10:00,
2013-08-04 18:15:00,88.9,50.6,29.76,WSW,256,0.0,0.0,27,0.00,,,0.00,Wunderground v.1.15,2013-08-05 00:15:00,
2013-08-04 18:20:00,88.7,50.4,29.76,WSW,256,0.0,0.0,27,0.00,,,0.00,Wunderground v.1.15,2013-08-05 00:20:00,
2013-08-04 18:25:00,88.6,49.3,29.76,WSW,256,0.0,0.0,26,0.00,,,0.00,Wunderground v.1.15,2013-08-05 00:25:00,
2013-08-04 18:30:00,88.5,49.2,29.76,WSW,256,0.0,1.0,26,0.00,,,0.00,Wunderground v.1.15,2013-08-05 00:30:00,
2013-08-04 18:35:00,88.4,49.2,29.76,WSW,256,0.0,1.0,26,0.00,,,0.00,Wunderground v.1.15,2013-08-05 00:35:00,
2013-08-04 18:40:00,88.4,50.2,29.76,WSW,256,0.0,0.0,27,0.00,,,0.00,Wunderground v.1.15,2013-08-05 00:40:00,
2013-08-04 18:45:00,88.3,50.1,29.76,WSW,256,0.0,0.0,27,0.00,,,0.00,Wunderground v.1.15,2013-08-05 00:45:00,
2013-08-04 18:50:00,88.2,50.0,29.76,WSW,256,0.0,0.0,27,0.00,,,0.00,Wunderground v.1.15,2013-08-05 00:50:00,
2013-08-04 18:55:00,88.1,49.9,29.77,WSW,256,0.0,0.0,27,0.00,,,0.00,Wunderground v.1.15,2013-08-05 00:55:00,
2013-08-04 19:00:00,87.9,48.7,29.77,WSW,256,0.0,0.0,26,0.00,,,0.00,Wunderground v.1.15,2013-08-05 01:00:00,
2013-08-04 19:05:00,87.7,47.5,29.78,WSW,256,0.0,0.0,25,0.00,,,0.00,Wunderground v.1.15,2013-08-05 01:05:00,
2013-08-04 19:10:00,87.5,47.3,29.78,WSW,256,0.0,1.0,25,0.00,,,0.00,Wunderground v.1.15,2013-08-05 01:10:00,
2013-08-04 19:15:00,86.9,51.7,29.78,WSW,256,1.0,1.0,30,0.00,,,0.00,Wunderground v.1.15,2013-08-05 01:15:00,
2013-08-04 19:20:00,85.4,53.0,29.78,WSW,257,1.0,1.0,33,0.00,,,0.00,Wunderground v.1.15,2013-08-05 01:20:00,
2013-08-04 19:30:00,83.8,52.4,29.79,WSW,257,1.0,1.0,34,0.00,,,0.00,Wunderground v.1.15,2013-08-05 01:30:00,
2013-08-04 19:35:00,83.6,52.3,29.79,WSW,257,1.0,1.0,34,0.00,,,0.00,Wunderground v.1.15,2013-08-05 01:35:00,
2013-08-04 19:40:00,83.5,52.2,29.79,WSW,257,0.0,0.0,34,0.00,,,0.00,Wunderground v.1.15,2013-08-05 01:40:00,
2013-08-04 19:45:00,83.4,52.9,29.80,WSW,257,1.0,1.0,35,0.00,,,0.00,Wunderground v.1.15,2013-08-05 01:45:00,
2013-08-04 19:55:00,82.8,53.1,29.80,WSW,257,1.0,1.0,36,0.00,,,0.00,Wunderground v.1.15,2013-08-05 01:55:00,
2013-08-04 20:00:00,82.6,52.9,29.81,WSW,257,1.0,1.0,36,0.00,,,0.00,Wunderground v.1.15,2013-08-05 02:00:00,
2013-08-04 20:05:00,82.4,53.5,29.83,WSW,257,1.0,1.0,37,0.00,,,0.00,Wunderground v.1.15,2013-08-05 02:05:00,
2013-08-04 20:10:00,82.1,52.5,29.82,WSW,257,1.0,1.0,36,0.00,,,0.00,Wunderground v.1.15,2013-08-05 02:10:00,
2013-08-04 20:15:00,81.8,52.2,29.83,WSW,257,0.0,1.0,36,0.00,,,0.00,Wunderground v.1.15,2013-08-05 02:15:00,
2013-08-04 20:20:00,81.6,52.1,29.83,WSW,257,0.0,0.0,36,0.00,,,0.00,Wunderground v.1.15,2013-08-05 02:20:00,
2013-08-04 20:25:00,81.6,52.8,29.84,WSW,257,0.0,4.0,37,0.00,,,0.00,Wunderground v.1.15,2013-08-05 02:25:00,
2013-08-04 20:29:00,81.1,53.8,29.84,WSW,257,2.0,6.0,39,0.00,,,0.00,Wunderground v.1.15,2013-08-05 02:29:00,
2013-08-04 20:35:00,80.4,55.9,29.85,WSW,258,3.0,6.0,43,0.00,,,0.00,Wunderground v.1.15,2013-08-05 02:35:00,
2013-08-04 20:45:00,78.9,57.0,29.89,WSW,258,1.0,3.0,47,0.00,,,0.00,Wunderground v.1.15,2013-08-05 02:45:00,
2013-08-04 20:49:00,78.1,59.6,29.90,WSW,258,0.0,0.0,53,0.00,,,0.00,Wunderground v.1.15,2013-08-05 02:49:00,
2013-08-04 20:55:00,76.4,60.5,29.91,WSW,258,1.0,2.0,58,0.82,,,0.04,Wunderground v.1.15,2013-08-05 02:55:00,
2013-08-04 21:00:00,73.1,60.2,29.90,WSW,258,1.0,2.0,64,0.20,,,0.08,Wunderground v.1.15,2013-08-05 03:00:00,
2013-08-04 21:05:00,70.2,60.0,29.90,WSW,258,2.0,6.0,70,0.08,,,0.08,Wunderground v.1.15,2013-08-05 03:05:00,
2013-08-04 21:10:00,68.9,60.3,29.90,WSW,258,3.0,3.0,74,0.05,,,0.09,Wunderground v.1.15,2013-08-05 03:10:00,
2013-08-04 21:15:00,68.1,59.9,29.91,WSW,258,3.0,6.0,75,0.05,,,0.09,Wunderground v.1.15,2013-08-05 03:15:00,
2013-08-04 21:25:00,67.4,59.2,29.91,WSW,258,5.0,9.0,75,0.04,,,0.09,Wunderground v.1.15,2013-08-05 03:25:00,
2013-08-04 21:30:00,67.2,59.4,29.91,WSW,258,5.0,7.0,76,0.00,,,0.09,Wunderground v.1.15,2013-08-05 03:30:00,
2013-08-04 21:34:00,67.0,58.8,29.91,WSW,258,5.0,7.0,75,0.00,,,0.09,Wunderground v.1.15,2013-08-05 03:34:00,
2013-08-04 21:40:00,66.8,58.6,29.91,West,259,5.0,5.0,75,0.00,,,0.09,Wunderground v.1.15,2013-08-05 03:40:00,
2013-08-04 21:45:00,66.6,58.4,29.90,West,259,5.0,5.0,75,0.00,,,0.09,Wunderground v.1.15,2013-08-05 03:45:00,
2013-08-04 21:50:00,66.6,57.7,29.89,NNE,30,5.0,5.0,73,0.00,,,0.09,Wunderground v.1.15,2013-08-05 03:50:00,
2013-08-04 21:55:00,66.9,57.2,29.89,NNE,13,4.0,5.0,71,0.00,,,0.09,Wunderground v.1.15,2013-08-05 03:55:00,
2013-08-04 22:00:00,67.3,57.6,29.89,North,5,4.0,4.0,71,0.00,,,0.09,Wunderground v.1.15,2013-08-05 04:00:00,
2013-08-04 22:05:00,67.4,56.9,29.88,NE,46,4.0,4.0,69,0.00,,,0.09,Wunderground v.1.15,2013-08-05 04:05:00,
2013-08-04 22:09:00,67.6,57.1,29.88,NNE,17,4.0,4.0,69,0.00,,,0.09,Wunderground v.1.15,2013-08-05 04:09:00,
2013-08-04 22:15:00,67.9,56.9,29.88,NNE,16,4.0,4.0,68,0.00,,,0.09,Wunderground v.1.15,2013-08-05 04:15:00,
2013-08-04 22:20:00,68.1,56.3,29.88,NNW,347,3.0,3.0,66,0.00,,,0.09,Wunderground v.1.15,2013-08-05 04:20:00,
2013-08-04 22:25:00,68.5,56.3,29.88,NNE,24,3.0,3.0,65,0.00,,,0.09,Wunderground v.1.15,2013-08-05 04:25:00,
2013-08-04 22:30:00,68.5,56.3,29.89,NNW,347,3.0,3.0,65,0.00,,,0.09,Wunderground v.1.15,2013-08-05 04:30:00,
2013-08-04 22:35:00,68.5,56.3,29.89,North,350,2.0,3.0,65,0.00,,,0.09,Wunderground v.1.15,2013-08-05 04:35:00,
2013-08-04 22:40:00,68.5,55.8,29.89,NNW,338,2.0,2.0,64,0.00,,,0.09,Wunderground v.1.15,2013-08-05 04:40:00,
2013-08-04 22:45:00,68.7,55.6,29.88,North,360,2.0,2.0,63,0.00,,,0.09,Wunderground v.1.15,2013-08-05 04:45:00,
2013-08-04 22:50:00,68.9,55.3,29.89,North,355,3.0,3.0,62,0.00,,,0.09,Wunderground v.1.15,2013-08-05 04:50:00,
2013-08-04 22:55:00,69.2,55.2,29.89,North,355,2.0,3.0,61,0.00,,,0.09,Wunderground v.1.15,2013-08-05 04:55:00,
2013-08-04 23:00:00,69.1,56.0,29.89,North,355,1.0,1.0,63,0.00,,,0.09,Wunderground v.1.15,2013-08-05 05:00:00,
2013-08-04 23:05:00,68.9,55.8,29.89,North,350,2.0,2.0,63,0.00,,,0.09,Wunderground v.1.15,2013-08-05 05:05:00,
2013-08-04 23:10:00,68.7,56.0,29.89,North,9,2.0,2.0,64,0.00,,,0.09,Wunderground v.1.15,2013-08-05 05:10:00,
2013-08-04 23:15:00,68.4,57.0,29.89,North,9,1.0,2.0,67,0.00,,,0.09,Wunderground v.1.15,2013-08-05 05:15:00,
2013-08-04 23:20:00,68.0,56.6,29.90,North,9,0.0,0.0,67,0.00,,,0.09,Wunderground v.1.15,2013-08-05 05:20:00,
2013-08-04 23:24:00,67.8,56.9,29.89,North,355,1.0,1.0,68,0.00,,,0.09,Wunderground v.1.15,2013-08-05 05:24:00,
2013-08-04 23:30:00,67.6,56.7,29.88,North,355,3.0,6.0,68,0.00,,,0.09,Wunderground v.1.15,2013-08-05 05:30:00,
2013-08-04 23:35:00,67.7,56.8,29.89,North,360,3.0,6.0,68,0.00,,,0.09,Wunderground v.1.15,2013-08-05 05:35:00,
2013-08-04 23:45:00,67.5,56.6,29.89,NE,42,0.0,2.0,68,0.00,,,0.09,Wunderground v.1.15,2013-08-05 05:45:00,
2013-08-04 23:50:00,67.5,56.2,29.89,NNE,28,0.0,0.0,67,0.00,,,0.09,Wunderground v.1.15,2013-08-05 05:50:00,